This is the latest recevied weather packets stored in our database for station/object F5OWB. If no packets are shown the sender has not sent any weather packets the latest 10 day(s).
| Time | Temp. | Humidity | Pressure | Rain* | Wind** | Luminosity | Snow |
|---|---|---|---|---|---|---|---|
| 1778157851 | 17.22° C | 56% | 1018 hPa | 0 mm | - | 803 W/m² | - |
| 1778157813 | 17.22° C | 58% | 1018.1 hPa | 0 mm | - | 803 W/m² | - |
| 1778157753 | 17.22° C | 56% | 1018 hPa | 0 mm | - | 803 W/m² | - |
| 1778157695 | 17.22° C | 57% | 1018 hPa | 0 mm | - | 800 W/m² | - |
| 1778157694 | 17.22° C | 57% | 1018 hPa | 0 mm | - | 800 W/m² | - |
| 1778157635 | 17.22° C | 56% | 1018.1 hPa | 0 mm | - | 800 W/m² | - |
| 1778157575 | 17.22° C | 57% | 1018.1 hPa | 0 mm | - | 798 W/m² | - |
| 1778157550 | 17.22° C | 58% | 1018.1 hPa | 0 mm | - | 798 W/m² | - |
| 1778157513 | 17.22° C | 59% | 1018.1 hPa | 0 mm | - | 796 W/m² | - |
| 1778157452 | 17.22° C | 58% | 1018.1 hPa | 0 mm | - | 798 W/m² | - |
| 1778157393 | 17.22° C | 57% | 1018.1 hPa | 0 mm | - | 800 W/m² | - |
| 1778157330 | 17.22° C | 58% | 1018.1 hPa | 0 mm | - | 800 W/m² | - |
| 1778157267 | 17.22° C | 59% | 1018.1 hPa | 0 mm | - | 805 W/m² | - |
| 1778157211 | 17.22° C | 59% | 1018 hPa | 0 mm | - | 807 W/m² | - |
| 1778157210 | 17.22° C | 59% | 1018 hPa | 0 mm | - | 807 W/m² | - |
| 1778157148 | 17.22° C | 58% | 1018.1 hPa | 0 mm | - | 809 W/m² | - |
| 1778157088 | 17.22° C | 60% | 1018.1 hPa | 0 mm | - | 812 W/m² | - |
| 1778157021 | 16.67° C | 60% | 1018.1 hPa | 0 mm | - | 814 W/m² | - |
| 1778156962 | 16.67° C | 59% | 1018.1 hPa | 0 mm | - | 817 W/m² | - |
| 1778156902 | 16.67° C | 60% | 1018.1 hPa | 0 mm | - | 817 W/m² | - |
| 1778156839 | 16.67° C | 63% | 1018.1 hPa | 0 mm | - | 814 W/m² | - |
| 1778156778 | 16.67° C | 60% | 1018.1 hPa | 0 mm | - | 816 W/m² | - |
| 1778156720 | 16.67° C | 59% | 1018.1 hPa | 0 mm | - | 817 W/m² | - |
| 1778156719 | 16.67° C | 59% | 1018.1 hPa | 0 mm | - | 817 W/m² | - |
| 1778156657 | 16.67° C | 61% | 1018.1 hPa | 0 mm | - | 823 W/m² | - |
* Rain latest hour (hover to see other rain measurements)
** Current wind speed in m/s (hover to see current wind gust speed)